Regional Weather Roundup
Issued by NWS Green Bay, WI

Home | Current Version | Previous Version | Graphics & Text | Print | Product List | Glossary Off
Versions: 1 2 3 4 5 6 7 8 9 10 11 12 13 14 15 16 17 18 19 20 21 22 23 24 25 26 27 28 29 30 31 32 33 34 35 36 37 38 39 40 41 42 43 44 45 46 47 48 49 50

170
ASUS43 KGRB 191700
RWRGRB

NORTH-CENTRAL AND NORTHEAST WISCONSIN REGIONAL WEATHER ROUNDUP
NATIONAL WEATHER SERVICE GREEN BAY WI
1100 AM CST SUN FEB 19 2017

WIZ005-009-010>012-018-019-191800-
NORTH CENTRAL WISCONSIN

CITY           SKY/WX    TMP DP  RH WIND       PRES   REMARKS
IRONWOOD       MOSUNNY   44  31  60 E5        30.00F
MANITOWISH WTR NOT AVBL
ARBOR VITAE    NOT AVBL
EAGLE RIVER    NOT AVBL
LAND O LAKES   MOSUNNY   44  29  55 SW3       30.02S
RHINELANDER    SUNNY     45  31  58 CALM      30.02R
PHILLIPS       MOSUNNY   48  32  54 CALM      29.99F
ANTIGO         NOT AVBL
TOMAHAWK       NOT AVBL
MERRILL        NOT AVBL
$$

WIZ013-073-191800-
NORTHEAST WISCONSIN

CITY           SKY/WX    TMP DP  RH WIND       PRES   REMARKS
IRON MOUNTAIN  MOSUNNY   42  28  57 CALM      30.02R
MARINETTE      SUNNY     49  31  49 SE7       30.05R
OCONTO         SUNNY     49  31  49 CALM      30.05R
$$

WIZ017-030-035>037-045-191800-
CENTRAL WISCONSIN

CITY           SKY/WX    TMP DP  RH WIND       PRES   REMARKS
MEDFORD        NOT AVBL
WAUSAU         SUNNY     45  34  65 CALM      30.00F
MOSINEE        MOSUNNY   48  37  66 CALM      30.03S
MARSHFIELD     SUNNY     47  33  58 SE6       30.00F
WISC RAPIDS    MOSUNNY   53  34  48 E3        30.03F
STEVENS POINT  NOT AVBL
WAUPACA        SUNNY     54  34  45 CALM      30.05R
SHAWANO        SUNNY     50  32  49 NE3       30.05S
CLINTONVILLE   SUNNY     50  32  50 CALM      30.04S
WAUTOMA        MOSUNNY   53  35  50 VRB3      30.05R
$$

WIZ038-039-048-051-191800-
FOX VALLEY

CITY           SKY/WX    TMP DP  RH WIND       PRES   REMARKS
NWS GREEN BAY  SUNNY     54  36  50 E3        30.04R
APPLETON       MOSUNNY   54  30  40 CALM      30.03R
OSHKOSH        SUNNY     51  34  52 E5        30.05R
FOND DU LAC    SUNNY     51  34  52 CALM      30.05R
$$

WIZ022-050-052-191800-
EAST CENTRAL WISCONSIN

CITY           SKY/WX    TMP DP  RH WIND       PRES   REMARKS
EPHRAIM        NOT AVBL
WASHINGTON ISL FAIR      42  31  63 N5        30.04R
STURGEON BAY   SUNNY     48  32  53 VRB3      30.06R
MANITOWOC      NOT AVBL
SHEBOYGAN      SUNNY     53  32  44 CALM      30.05R
$$

LMZ563-521-522-541>543-191800-
LAKESHORE

STATION/POSITION TIME  TEMP    WIND        PRES    VSBY  WAVE
                       AIR SEA DIR/SP/G                  HT/PER
                 (UTC) (F)     (DEG/KT/KT) (MB)    (MI)  (FT/S)
SHEBOYGAN LKSHOR 1600   49     360/  6/  6 1017.2R
KEWAUNEE LKSHORE 1630   51      50/  2/  5 1016.9R
NORTHPORT PIER   1640   42     320/  6/  8 1017.6R
CHAMBERS ISLAND  1640   47      10/  2/  3 1017.3R
MENOMINEE LKSHOR 1630   43     100/  4/  5 1016.5R
$$




USA.gov is the U.S. government's official web portal to all federal, state and local government web resources and services.